Hilton Head Island, SC

10:00 PM EDT on June 26, 2017 (GMT -0400)
Hilton Head

Weather History for KHXD - October, 2012

Change the Weather History Date:

Sunday, October 21, 2012

  Actual Average Record
Temperature  
Mean Temperature 62 °F -  
Max Temperature 71 °F 75 °F 85 °F (1969)
Min Temperature 53 °F 54 °F 37 °F (1964)
Degree Days  
Heating Degree Days 3    
Growing Degree Days 12 (Base 50)    
Moisture  
Dew Point 54 °F    
Average Humidity 86    
Maximum Humidity 100    
Minimum Humidity 56    
Precipitation  
Precipitation 0.00 in - - ()
Sea Level Pressure  
Sea Level Pressure 30.06 in    
Wind  
Wind Speed 3 mph (NNW)    
Max Wind Speed 12 mph    
Max Gust Speed -    
Visibility 10 miles    
Events      
Averages and records for this station are not official NWS values.
T = Trace of Precipitation, MM = Missing Value Source: NWS Daily Summary

Daily Weather History Graph

Daily Weather History Graph

Search for Another Location

Airport or City:

Trip Planner

Search our weather history database for the weather conditions in past years. The results will help you decide how hot, cold, wet, or windy it might be!

Date:

Astronomy

Oct. 21, 2012 Rise Set
Actual Time 7:31 AM EDT 6:42 PM EDT
Civil Twilight 7:06 AM EDT 7:07 PM EDT
Nautical Twilight 6:37 AM EDT 7:36 PM EDT
Astronomical Twilight 6:09 AM EDT 8:04 PM EDT
Moon 1:44 PM EDT (10/21) No Moon Set
Length of Visible Light 12h 01m
Length of Day
11h 11m
Waxing Crescent, 45% of the Moon is Illuminated
Oct 21
Waxing Crescent
Oct 21
First Quarter
Oct 29
Full
Nov 6
Last Quarter
Nov 13
New

Hourly Weather History & Observations

Time (EDT) Temp. Dew Point Humidity Pressure Visibility Wind Dir Wind Speed Gust Speed Precip Events Conditions
12:15 AM 55.4 °F 53.6 °F 94% 29.97 in 10.0 mi WSW 3.5 mph - 0.00 in   Clear
12:35 AM 55.4 °F 53.6 °F 94% 29.97 in 10.0 mi Calm Calm - 0.00 in   Clear
12:55 AM 55.4 °F 53.6 °F 94% 29.97 in 10.0 mi WSW 3.5 mph - 0.00 in   Clear
1:15 AM 55.4 °F 53.6 °F 94% 29.97 in 10.0 mi West 3.5 mph - 0.00 in   Clear
1:35 AM 55.4 °F 53.6 °F 94% 29.97 in 8.0 mi West 3.5 mph - 0.00 in   Clear
1:55 AM 55.4 °F 51.8 °F 88% 29.98 in 10.0 mi Calm Calm - 0.00 in   Clear
2:15 AM 55.4 °F 51.8 °F 88% 29.99 in 9.0 mi Calm Calm - 0.00 in   Clear
2:35 AM 53.6 °F 51.8 °F 94% 29.98 in 10.0 mi WNW 3.5 mph - 0.00 in   Clear
2:55 AM 53.6 °F 53.6 °F 100% 29.99 in 9.0 mi NW 3.5 mph - 0.00 in   Clear
3:15 AM 53.6 °F 51.8 °F 94% 29.99 in 9.0 mi Calm Calm - 0.00 in   Clear
3:35 AM 55.4 °F 53.6 °F 94% 29.99 in 10.0 mi WNW 3.5 mph - 0.00 in   Clear
3:55 AM 53.6 °F 51.8 °F 94% 29.99 in 10.0 mi West 3.5 mph - 0.00 in   Clear
4:15 AM 55.4 °F 51.8 °F 88% 29.99 in 10.0 mi WNW 3.5 mph - 0.00 in   Clear
4:35 AM 55.4 °F 51.8 °F 88% 30.00 in 10.0 mi West 3.5 mph - 0.00 in   Clear
4:55 AM 55.4 °F 51.8 °F 88% 30.01 in 10.0 mi Calm Calm - 0.00 in   Clear
5:15 AM 53.6 °F 51.8 °F 94% 30.01 in 10.0 mi NW 3.5 mph - 0.00 in   Clear
5:35 AM 55.4 °F 51.8 °F 88% 30.02 in 10.0 mi WNW 4.6 mph - 0.00 in   Clear
5:55 AM 53.6 °F 51.8 °F 94% 30.03 in 10.0 mi NW 3.5 mph - 0.00 in   Clear
6:15 AM 53.6 °F 51.8 °F 94% 30.04 in 10.0 mi Calm Calm - 0.00 in   Clear
6:35 AM 55.4 °F 51.8 °F 88% 30.04 in 10.0 mi WNW 3.5 mph - 0.00 in   Clear
6:56 AM 55.4 °F 50.0 °F 82% 30.06 in 10.0 mi Calm Calm - N/A   Clear
8:50 AM 59.0 °F 50.0 °F 72% 30.10 in 10.0 mi North 6.9 mph - N/A   Clear
10:50 AM 66.2 °F 53.6 °F 64% 30.13 in 10.0 mi NNE 8.1 mph - N/A   Clear
11:50 AM 69.8 °F 53.6 °F 56% 30.12 in 10.0 mi NNE 8.1 mph - N/A   Clear
12:50 PM 71.6 °F 55.4 °F 57% 30.11 in 10.0 mi NE 9.2 mph - N/A   Clear
1:50 PM 71.6 °F 55.4 °F 57% 30.10 in 10.0 mi NE 6.9 mph - N/A   Clear
2:50 PM 71.6 °F 55.4 °F 57% 30.09 in 10.0 mi NE 11.5 mph - N/A   Clear
3:50 PM 71.6 °F 55.4 °F 57% 30.09 in 10.0 mi NE 5.8 mph - N/A   Clear
4:50 PM 71.6 °F 55.4 °F 57% 30.09 in 10.0 mi ENE 5.8 mph - N/A   Clear
5:50 PM 69.8 °F 57.2 °F 64% 30.10 in 10.0 mi East 3.5 mph - N/A   Clear
6:50 PM 62.6 °F 57.2 °F 82% 30.11 in 10.0 mi Calm Calm - N/A   Clear
7:50 PM 60.8 °F 57.2 °F 88% 30.13 in 10.0 mi Calm Calm - N/A   Clear
8:50 PM 59.0 °F 57.2 °F 94% 30.14 in 10.0 mi Calm Calm - N/A   Clear
9:15 PM 57.2 °F 57.2 °F 100% 30.14 in 10.0 mi Calm Calm - 0.00 in   Clear
9:35 PM 57.2 °F 57.2 °F 100% 30.15 in 10.0 mi Calm Calm - 0.00 in   Clear
9:55 PM 57.2 °F 57.2 °F 100% 30.15 in 10.0 mi Calm Calm - 0.00 in   Clear
10:15 PM 57.2 °F 55.4 °F 94% 30.15 in 10.0 mi Calm Calm - 0.00 in   Clear
10:35 PM 57.2 °F 55.4 °F 94% 30.15 in 10.0 mi NNE 3.5 mph - 0.00 in   Clear
10:55 PM 57.2 °F 55.4 °F 94% 30.16 in 10.0 mi Calm Calm - 0.00 in   Clear
11:15 PM 55.4 °F 55.4 °F 100% 30.16 in 10.0 mi Calm Calm - 0.00 in   Clear
11:35 PM 55.4 °F 55.4 °F 100% 30.16 in 10.0 mi Calm Calm - 0.00 in   Clear
11:55 PM 55.4 °F 55.4 °F 100% 30.16 in 10.0 mi Calm Calm - 0.00 in   Clear